Airport Name : Roi Et

Other Name : Roi Et

ICAO : VTUV

IATA : ROI

FAA :

Latitude : 16.116761

Longitude : 103.773797

Country : Thailand

Local Date and Time : 11/21/2018 4:17:00 AM

 

TAF (Terminal Aerodrome Forecast)

TAF VTUV 201700Z 2018/2118 18005KT 8000 NSC BECMG 2102/2104 07002KT

 

METAR (METeorological Aerodrome Report)